[[{"header":{"parameterUnit":"m.s-1","parameterCategory":1,"la1":30.2991,"la2":30.254,"lo1":-89.0895,"lo2":-89.0444,"dy":0.0017,"dx":0.0017,"nx":28,"ny":28,"refTime":"2023-08-25T03:00:00:Z","depth":0,"parameterNumber":2,"parameterNumberName":"U-component_of_WINDS"},"data":[0,0,0,0,0,0,0,0,0,0,0,0,0,0,0,0,0,0,0,0,0,0,0,0,0,0,0,0,0,0,0,0,0,0,0,0,0,0,0,0,0,0,0,0,0,0,0,0,0,0,0,0,0,0,0,0,0,0,-2.3151,-2.3151,0,-2.3178,-2.3178,-2.3178,-2.3161,-2.316,-2.3159,-2.3159,-2.3189,-2.319,-2.3192,0,0,0,0,0,0,0,0,0,0,0,0,0,-2.3089,-2.309,-2.3151,-2.3151,-2.3152,-2.3178,-2.3178,-2.3179,-2.3161,-2.316,-2.3159,-2.3158,-2.3188,-2.319,-2.3192,0,0,0,0,0,0,0,0,0,0,0,0,0,-2.3116,-2.309,-2.3151,-2.3146,-2.3146,-2.3178,-2.3178,-2.3179,-2.3161,-2.316,-2.3159,-2.3158,-2.3187,-2.319,-2.3192,-2.3231,0,0,-2.3199,-2.32,0,0,0,0,0,0,0,0,-2.3114,-2.3118,-2.3146,-2.3146,-2.3146,-2.3165,-2.3167,-2.3196,-2.3162,-2.3156,-2.3159,-2.3157,-2.3182,-2.3185,-2.3192,-2.3232,-2.3234,-2.3199,-2.3201,-2.3202,-2.3202,0,0,0,0,0,0,0,-2.3112,-2.3117,-2.3162,-2.3147,-2.3147,-2.3144,-2.3146,-2.3173,-2.3175,-2.3156,-2.3155,-2.3158,-2.3182,-2.319,-2.3193,-2.3234,-2.3199,-2.3201,-2.3203,-2.3204,-2.331,-2.3311,0,0,0,0,0,0,-2.311,-2.3115,-2.3161,-2.3162,-2.3127,-2.3146,-2.3149,-2.316,-2.3175,-2.3176,-2.3159,-2.3157,-2.3187,-2.319,-2.3194,-2.3241,-2.3202,-2.3204,-2.3205,-2.3308,-2.331,-2.3312,0,0,0,0,0,0,-2.3109,-2.3115,-2.316,-2.3139,-2.3144,-2.3148,-2.3161,-2.3161,-2.317,-2.3177,-2.3178,-2.3167,-2.3186,-2.3191,-2.3222,-2.3242,-2.3205,-2.3207,-2.3307,-2.3309,-2.3311,-2.3336,0,0,0,0,0,0,-2.3107,-2.3114,-2.3128,-2.3139,-2.3145,-2.3186,-2.3162,-2.3163,-2.3174,-2.3171,-2.3185,-2.3186,-2.3185,-2.3219,-2.3224,-2.3245,-2.3209,-2.3305,-2.3308,-2.331,-2.3333,-2.3338,-2.3343,0,0,0,0,0,-2.3105,-2.3134,-2.3129,-2.3134,-2.3162,-2.3187,-2.3191,-2.3189,-2.3175,-2.319,-2.3195,-2.3186,-2.3239,-2.3222,-2.3228,-2.3249,-2.3304,-2.3307,-2.331,-2.3331,-2.3337,-2.3343,0,0,0,0,0,0,-2.3125,-2.3135,-2.3129,-2.3162,-2.3174,-2.3184,-2.3202,-2.3196,-2.3212,-2.3209,-2.3207,-2.321,-2.3243,-2.325,-2.3231,-2.3289,-2.327,-2.3274,-2.3283,-2.3289,-2.3294,-2.3292,-2.3211,0,0,0,0,0,-2.3133,-2.3152,-2.316,-2.3188,-2.3194,-2.3198,-2.3208,-2.3206,-2.3218,-2.3223,-2.3231,-2.3244,-2.3265,-2.3278,-2.3296,-2.3335,-2.3338,-2.3353,-2.3358,-2.3362,-2.3365,-2.3388,-2.3395,-2.3322,-2.3322,-2.3322,0,0,-2.315,-2.3158,-2.317,-2.3192,-2.3201,-2.3222,-2.3202,-2.3224,-2.3239,-2.3227,-2.3257,-2.3264,-2.3279,-2.3314,-2.333,-2.3321,-2.3387,-2.3366,-2.3369,-2.337,-2.3392,-2.3399,-2.3405,-2.3324,-2.3324,-2.3324,0,0,-2.3191,-2.3199,-2.3224,-2.3233,-2.3247,-2.3249,-2.3256,-2.3268,-2.3271,-2.3301,-2.3293,-2.3313,-2.3347,-2.3358,-2.3369,-2.3418,-2.341,-2.3424,-2.345,-2.3472,-2.3477,-2.3482,-2.35,-2.3507,-2.3428,-2.3428,-2.3428,0,-2.3211,-2.324,-2.3238,-2.3261,-2.3272,-2.3262,-2.3288,-2.3298,-2.3318,-2.3326,-2.3315,-2.3359,-2.3369,-2.3407,-2.342,-2.3428,-2.3436,-2.3422,-2.3476,-2.3482,-2.3486,-2.3504,-2.351,-2.343,-2.343,-2.343,-2.343,0,-2.3264,-2.3285,-2.3303,-2.3322,-2.3335,-2.336,-2.3363,-2.3377,-2.3375,-2.3379,-2.3411,-2.3423,-2.3444,-2.3454,-2.3451,-2.3493,-2.3487,-2.3476,-2.3456,-2.3495,-2.3511,-2.3518,-2.3432,-2.3432,-2.3431,-2.3431,0,0,-2.3316,-2.3334,-2.3341,-2.3351,-2.3366,-2.3383,-2.3409,-2.3429,-2.3442,-2.3457,-2.3479,-2.351,-2.3501,-2.3513,-2.3512,-2.3532,-2.3571,-2.3519,-2.352,-2.3529,-2.3619,-2.3626,-2.3634,-2.3567,-2.3568,-2.3569,-2.3618,0,-2.3358,-2.34,-2.34,-2.344,-2.3461,-2.3453,-2.3476,-2.3489,-2.3494,-2.3514,-2.352,-2.3542,-2.3528,-2.3536,-2.3555,-2.3562,-2.3589,-2.3559,-2.3588,-2.359,-2.3584,-2.3642,-2.365,-2.3695,-2.3624,-2.3625,-2.3626,0,-2.3412,-2.3428,-2.347,-2.3485,-2.3493,-2.3513,-2.3533,-2.3552,-2.3568,-2.357,-2.3585,-2.3582,-2.361,-2.3591,-2.363,-2.3609,-2.3622,-2.3628,-2.363,-2.3632,-2.3609,-2.3646,-2.3709,-2.3716,-2.3636,-2.3635,-2.3635,0,-2.3446,-2.3479,-2.3508,-2.3517,-2.3534,-2.3549,-2.3557,-2.3572,-2.3585,-2.3604,-2.3613,-2.3635,-2.3646,-2.3664,-2.3669,-2.3654,-2.3709,-2.3689,-2.3713,-2.3713,-2.3723,-2.3722,-2.3789,-2.3732,-2.3732,-2.3732,-2.3732,0,-2.3493,-2.3519,-2.3524,-2.3542,-2.3572,-2.3573,-2.3603,-2.3611,-2.3624,-2.3645,-2.3641,-2.3661,-2.3665,-2.3687,-2.3691,-2.3724,-2.3729,-2.3733,-2.3734,-2.3733,-2.3733,-2.3741,-2.3738,-2.3734,-2.3734,-2.3733,-2.3733,0,-2.3535,-2.354,-2.3571,-2.3586,-2.3591,-2.3612,-2.3625,-2.3644,-2.365,-2.3677,-2.3683,-2.3693,-2.3718,-2.3724,-2.3755,-2.3758,-2.3797,-2.3794,-2.3791,-2.379,-2.3814,-2.3812,-2.3888,-2.3898,-2.3835,-2.3835,-2.3836,0,-2.3564,-2.3584,-2.3601,-2.3614,-2.3623,-2.3645,-2.3658,-2.3661,-2.3676,-2.3697,-2.3714,-2.3739,-2.3758,-2.38,-2.3811,-2.3835,-2.3833,-2.3858,-2.3836,-2.3836,-2.3834,-2.3832,-2.3835,-2.3862,-2.3862,-2.3863,-2.3863,0,-2.3616,-2.3617,-2.3636,-2.3657,-2.3673,-2.369,-2.3706,-2.3718,-2.3723,-2.3741,-2.3766,-2.3782,-2.3813,-2.3839,-2.3864,-2.3874,-2.387,-2.3871,-2.3877,-2.3877,-2.3874,-2.3876,-2.3802,-2.3868,-2.3868,-2.3868,-2.3867,-2.3867,-2.3652,-2.367,-2.3685,-2.3707,-2.372,-2.3735,-2.3754,-2.3762,-2.3783,-2.3809,-2.381,-2.3838,-2.3856,-2.3889,-2.3901,-2.3925,-2.3917,-2.3927,-2.3929,-2.3932,-2.3934,-2.3871,-2.3929,-2.3929,-2.3929,-2.3929,-2.3929,0,-2.3704,-2.3713,-2.3734,-2.3756,-2.3775,-2.3769,-2.3787,-2.3803,-2.3828,-2.3844,-2.3864,-2.3895,-2.3921,-2.3934,-2.396,-2.3976,-2.3975,-2.3983,-2.3982,-2.3984,-2.3939,-2.393,-2.3983,-2.3983,-2.3983,-2.3983,-2.3983,-2.3983,-2.3733,-2.3763,-2.3767,-2.3804,-2.3814,-2.3841,-2.3852,-2.3867,-2.3881,-2.3915,-2.3936,-2.3944,-2.396,-2.3988,-2.4011,-2.4015,-2.4025,-2.4033,-2.4036,-2.3993,-2.3987,-2.3982,-2.3974,-2.4035,-2.4035,-2.408,-2.408,-2.408]},{"header":{"parameterUnit":"m.s-1","parameterCategory":1,"la1":30.2991,"la2":30.254,"lo1":-89.0895,"lo2":-89.0444,"dy":0.0017,"dx":0.0017,"nx":28,"ny":28,"refTime":"2023-08-25T03:00:00:Z","depth":0,"parameterNumber":3,"parameterNumberName":"V-component_of_WINDS"},"data":[0,0,0,0,0,0,0,0,0,0,0,0,0,0,0,0,0,0,0,0,0,0,0,0,0,0,0,0,0,0,0,0,0,0,0,0,0,0,0,0,0,0,0,0,0,0,0,0,0,0,0,0,0,0,0,0,0,0,4.2528,4.2529,0,4.2577,4.2577,4.2578,4.2648,4.2649,4.265,4.2651,4.2696,4.2696,4.2696,0,0,0,0,0,0,0,0,0,0,0,0,0,4.2493,4.2493,4.2528,4.2529,4.2529,4.2577,4.2577,4.2578,4.2648,4.2649,4.2651,4.2652,4.2696,4.2696,4.2696,0,0,0,0,0,0,0,0,0,0,0,0,0,4.2521,4.2493,4.2528,4.257,4.2574,4.2577,4.2577,4.2578,4.2647,4.2649,4.2651,4.2653,4.2696,4.2696,4.2696,4.266,0,0,4.2697,4.2697,0,0,0,0,0,0,0,0,4.2519,4.2522,4.2563,4.2567,4.2572,4.2608,4.2581,4.2605,4.2647,4.2619,4.2651,4.2654,4.2665,4.2668,4.2673,4.2662,4.2664,4.2697,4.2697,4.2697,4.2697,0,0,0,0,0,0,0,4.2517,4.2521,4.2547,4.2564,4.2569,4.2585,4.2591,4.2586,4.2631,4.2622,4.2627,4.2632,4.2668,4.2673,4.2674,4.2665,4.2697,4.2697,4.2697,4.2697,4.2628,4.2627,0,0,0,0,0,0,4.251,4.2519,4.2546,4.2549,4.255,4.2584,4.2591,4.2595,4.2632,4.2639,4.2631,4.2635,4.2672,4.2674,4.2676,4.2637,4.2697,4.2697,4.2697,4.263,4.2628,4.2626,0,0,0,0,0,0,4.2509,4.2512,4.2544,4.2535,4.2541,4.2583,4.2586,4.2595,4.26,4.2638,4.2646,4.2627,4.2673,4.2676,4.2664,4.264,4.2697,4.2697,4.2632,4.2629,4.2627,4.2558,0,0,0,0,0,0,4.2507,4.2511,4.2498,4.2534,4.2541,4.2532,4.2585,4.2594,4.26,4.2607,4.2637,4.2644,4.2675,4.2664,4.2664,4.2641,4.2697,4.2635,4.2631,4.2628,4.2562,4.2553,4.2545,0,0,0,0,0,4.2506,4.2475,4.2497,4.25,4.2526,4.253,4.2534,4.2571,4.2598,4.2585,4.261,4.2643,4.2642,4.2662,4.2663,4.2639,4.2636,4.2632,4.2628,4.2566,4.2555,4.2545,0,0,0,0,0,0,4.2432,4.2481,4.2505,4.2486,4.2504,4.2542,4.2527,4.2557,4.2567,4.2572,4.2617,4.2623,4.2606,4.2622,4.2642,4.2607,4.2645,4.264,4.2597,4.2587,4.2578,4.2574,4.2697,0,0,0,0,0,4.2414,4.2415,4.2457,4.2435,4.2443,4.2483,4.2486,4.2514,4.2534,4.2541,4.2565,4.2582,4.2586,4.2587,4.2593,4.2566,4.2573,4.255,4.2541,4.2534,4.2529,4.2517,4.2507,4.2612,4.2612,4.2612,0,0,4.2376,4.2402,4.24,4.2421,4.2438,4.2437,4.2489,4.2485,4.2485,4.254,4.2531,4.2549,4.2571,4.2552,4.2544,4.2564,4.2502,4.2528,4.2522,4.2522,4.2512,4.2502,4.2493,4.2609,4.261,4.261,0,0,4.2306,4.2326,4.2311,4.2328,4.2354,4.2382,4.2378,4.2412,4.2427,4.242,4.2462,4.2461,4.2466,4.2481,4.2488,4.2426,4.2457,4.2426,4.238,4.2368,4.236,4.2352,4.233,4.2322,4.2422,4.2422,4.2422,0,4.2254,4.2256,4.2299,4.2294,4.2302,4.2354,4.2339,4.2353,4.2379,4.2383,4.2405,4.2415,4.2433,4.2418,4.2403,4.2407,4.2404,4.2423,4.2358,4.2351,4.2345,4.2324,4.2316,4.2418,4.2419,4.2419,4.2419,0,4.2192,4.2192,4.2177,4.2203,4.221,4.2199,4.224,4.2241,4.2269,4.2294,4.2285,4.2309,4.2321,4.232,4.2346,4.2309,4.2321,4.235,4.2388,4.233,4.2312,4.2304,4.2413,4.2414,4.2415,4.2416,0,0,4.2075,4.2127,4.2121,4.2134,4.2168,4.2168,4.216,4.2174,4.2175,4.2191,4.2185,4.219,4.2218,4.2226,4.2254,4.2244,4.2194,4.2274,4.2275,4.2258,4.2155,4.2133,4.2123,4.2215,4.2213,4.2212,4.2154,0,4.2011,4.2002,4.2042,4.2022,4.2023,4.2074,4.2068,4.2087,4.211,4.2114,4.2139,4.2142,4.2178,4.2184,4.2176,4.2201,4.2173,4.2206,4.2209,4.2209,4.2202,4.2114,4.209,4.2034,4.2147,4.2145,4.2145,0,4.1936,4.1951,4.1931,4.1968,4.197,4.1963,4.198,4.1983,4.2007,4.2024,4.2035,4.2069,4.2063,4.2101,4.2094,4.2115,4.2119,4.2132,4.213,4.2132,4.2173,4.2112,4.2016,4.2008,4.2134,4.2134,4.2135,0,4.1853,4.1868,4.1859,4.1869,4.1911,4.1905,4.1922,4.1948,4.1954,4.1968,4.1973,4.1985,4.1992,4.2,4.2036,4.206,4.2025,4.2065,4.2039,4.2038,4.2028,4.2028,4.1931,4.2031,4.2031,4.2031,4.2031,0,4.1778,4.1764,4.1823,4.1817,4.1804,4.1849,4.1834,4.1856,4.1879,4.1878,4.1922,4.192,4.1967,4.197,4.1998,4.1988,4.1991,4.2004,4.2012,4.2,4.1998,4.2003,4.2007,4.2029,4.2029,4.203,4.203,0,4.1682,4.1721,4.1715,4.1757,4.1767,4.1755,4.179,4.1786,4.1813,4.1812,4.1814,4.1855,4.1862,4.1899,4.1912,4.1931,4.1911,4.1926,4.1903,4.1908,4.188,4.1882,4.1782,4.1771,4.1877,4.1876,4.1875,0,4.1632,4.1623,4.1664,4.1668,4.1684,4.1688,4.1696,4.174,4.1746,4.1773,4.1766,4.1776,4.1787,4.1794,4.1824,4.1836,4.1851,4.1816,4.1853,4.1842,4.1851,4.1851,4.185,4.1807,4.1806,4.1805,4.1804,0,4.1538,4.1558,4.1568,4.1585,4.1593,4.1608,4.1625,4.1625,4.1675,4.1679,4.1687,4.1695,4.1711,4.172,4.1737,4.1754,4.1786,4.1792,4.1786,4.1774,4.1762,4.1768,4.1881,4.1794,4.1795,4.1795,4.1796,4.1796,4.1463,4.1458,4.1488,4.1497,4.1516,4.1532,4.1531,4.1559,4.1567,4.1584,4.161,4.1614,4.1639,4.1665,4.1679,4.1683,4.1702,4.1694,4.1692,4.1689,4.1683,4.1762,4.1686,4.1686,4.1687,4.1687,4.1687,0,4.1372,4.1394,4.1403,4.1427,4.1435,4.1468,4.1489,4.1493,4.1497,4.1518,4.1528,4.1538,4.1548,4.158,4.1593,4.159,4.1605,4.1591,4.1592,4.1595,4.1665,4.1669,4.1579,4.1579,4.1579,4.1579,4.1579,4.1579,4.1325,4.1319,4.1343,4.1347,4.1368,4.1375,4.1384,4.1399,4.1416,4.1425,4.1435,4.1457,4.1482,4.1498,4.1508,4.1517,4.152,4.1501,4.1515,4.158,4.159,4.16,4.1604,4.1501,4.1501,4.1445,4.1445,4.1444]}]]